Downstream station:
SHEF ID: ENWK1 CROOKED C NR ENGLEWOOD, KS
STATION TYPE:
Regulating: Stage = 6.50, Flow = 243
PRECIP STAGE RIV-FLOW BAT-LOAD
in ft cfs volt
Ccp-Rev Ccp-Rev Ccp-Rev Ccp-Rev
(US/Central)
01/11 00:00 0.00 2.44 4 12.89
01/11 01:00 0.00 2.44 4 12.83
01/11 02:00 0.00 2.44 4 12.77
01/11 03:00 0.00 2.44 4 12.77
01/11 04:00 0.00 2.43 3 12.71
01/11 05:00 0.00 2.42 3 12.71
01/11 06:00 0.00 2.43 3 12.65
01/11 07:00 0.00 2.55 5 12.65
01/11 08:00 0.00 2.64 6 12.60
01/11 09:00 0.00 2.69 7 14.06
01/11 10:00 0.00 2.48 4 14.76
01/11 11:00 0.00 2.41 3 14.53
01/11 12:00 0.00 2.38 3 14.41
01/11 13:00 0.00 2.37 3 14.30
01/11 14:00 0.00 2.38 3 14.18
01/11 15:00 0.00 2.42 3 14.12
01/11 16:00 0.00 2.43 3 14.12
01/11 17:00 0.00 2.44 4 13.88
01/11 18:00 0.00 2.44 4 13.59
01/11 19:00 0.00 2.44 4 13.12
01/11 20:00 0.00 2.44 4 13.00
01/11 21:00 0.00 2.44 4 12.95
01/11 22:00 0.00 2.43 3 12.95
01/11 23:00 ---- ---- ---- ----